[Date Prev][Date Next][Thread Prev][Thread Next] - [Date Index][Thread Index][Author Index]
2 LIne ISS Keps 12-9
- Subject: [sarex] 2 LIne ISS Keps 12-9
- From: "Dave Larsen PhD" <doc@xxxxxxxxxxx>
- Date: Sun, 9 Dec 2001 02:27:00 -0800
ISS
1 25544U 98067A 01343.25000000 .00054567 00000-0 56947-3 0 8123
2 25544 51.6367 287.8550 0009836 72.6063 73.1774 15.63903393174402
----
Via the sarex mailing list at AMSAT.ORG courtesy of AMSAT-NA.
To unsubscribe, send "unsubscribe sarex" to Majordomo@amsat.org
AMSAT Home